,,Stat6,,Stat2,,Stat8,,Stat9,,Stat10,,Wind1,,Wind1,
time,status,PA1M_AVG,status,PR1M_SUM,status,RH1M_AVG,status,SR1M_AVG,status,TA1M_AVG,status,W1dAve1m,status,W1sAve1m,
2007-04-04, 00:00:00,VALID,917.99,VALID,0,VALID,100,VALID,-0.0849042,VALID,19.4305,VALID,137,VALID,1.30004,
2007-04-04, 00:01:00,VALID,917.985,VALID,0,VALID,100,VALID,-0.101885,VALID,19.4203,VALID,144,VALID,1.35447,
2007-04-04, 00:02:00,VALID,917.97,VALID,0,VALID,100,VALID,-0.101885,VALID,19.427,VALID,146,VALID,1.61083,
2007-04-04, 00:03:00,VALID,917.956,VALID,0,VALID,100,VALID,-0.101885,VALID,19.4203,VALID,140,VALID,1.40285,
2007-04-04, 00:04:00,VALID,917.929,VALID,0,VALID,100,VALID,-0.0849042,VALID,19.4203,VALID,144,VALID,1.08097,
2007-04-04, 00:05:00,VALID,917.922,VALID,0,VALID,100,VALID,-0.0849042,VALID,19.4173,VALID,145,VALID,1.08371,
2007-04-04, 00:06:00,VALID,917.901,VALID,0,VALID,100,VALID,-0.0849042,VALID,19.4138,VALID,156,VALID,1.36435,
2007-04-04, 00:07:00,VALID,917.894,VALID,0,VALID,100,VALID,-0.0679233,VALID,19.4203,VALID,149,VALID,1.22485,
2007-04-04, 00:08:00,VALID,917.884,VALID,0,VALID,100,VALID,-0.135847,VALID,19.4205,VALID,154,VALID,1.2242,
2007-04-04, 00:09:00,VALID,917.867,VALID,0,VALID,100,VALID,-0.0679233,VALID,19.4268,VALID,151,VALID,1.16777,
2007-04-04, 00:10:00,VALID,917.856,VALID,0,VALID,100,VALID,-0.0849042,VALID,19.4335,VALID,143,VALID,1.46057,
2007-04-04, 00:11:00,VALID,917.847,VALID,0,VALID,100,VALID,-0.0849042,VALID,19.43,VALID,144,VALID,1.78452,
2007-04-04, 00:12:00,VALID,917.82,VALID,0,VALID,100,VALID,-0.118866,VALID,19.4375,VALID,143,VALID,1.50614,
2007-04-04, 00:13:00,VALID,917.804,VALID,0,VALID,100,VALID,-0.0849042,VALID,19.43,VALID,146,VALID,1.46372,
2007-04-04, 00:14:00,VALID,917.789,VALID,0,VALID,100,VALID,-0.0339617,VALID,19.4255,VALID,151,VALID,1.39187,
2007-04-04, 00:15:00,VALID,917.766,VALID,0,VALID,100,VALID,-0.0169808,VALID,19.432,VALID,141,VALID,1.85469,
2007-04-04, 00:16:00,VALID,917.75,VALID,0,VALID,100,VALID,0,VALID,19.4323,VALID,142,VALID,1.40916,
2007-04-04, 00:17:00,VALID,917.728,VALID,0,VALID,100,VALID,0,VALID,19.4058,VALID,151,VALID,1.52586,
2007-04-04, 00:18:00,VALID,917.706,VALID,0,VALID,100,VALID,-0.0169808,VALID,19.4058,VALID,141,VALID,1.25,
2007-04-04, 00:19:00,VALID,917.691,VALID,0,VALID,100,VALID,0,VALID,19.4161,VALID,145,VALID,1.79383,
2007-04-04, 00:20:00,VALID,917.699,VALID,0,VALID,100,VALID,0,VALID,19.4093,VALID,141,VALID,1.44316,
2007-04-04, 00:21:00,VALID,917.678,VALID,0,VALID,100,VALID,0.0169808,VALID,19.3866,VALID,141,VALID,1.6503,
2007-04-04, 00:22:00,VALID,917.674,VALID,0,VALID,100,VALID,0,VALID,19.3799,VALID,137,VALID,1.50818,
2007-04-04, 00:23:00,VALID,917.675,VALID,0,VALID,100,VALID,-0.0169808,VALID,19.3704,VALID,144,VALID,1.31193,
2007-04-04, 00:24:00,VALID,917.664,VALID,0,VALID,100,VALID,-0.0339617,VALID,19.3806,VALID,135,VALID,1.12809,
2007-04-04, 00:25:00,VALID,917.657,VALID,0,VALID,100,VALID,0,VALID,19.3669,VALID,138,VALID,1.05137,
2007-04-04, 00:26:00,VALID,917.644,VALID,0,VALID,100,VALID,0,VALID,19.3771,VALID,152,VALID,0.954327,
2007-04-04, 00:27:00,VALID,917.627,VALID,0,VALID,100,VALID,0,VALID,19.3801,VALID,135,VALID,0.840774,
2007-04-04, 00:28:00,VALID,917.615,VALID,0,VALID,100,VALID,-0.0169808,VALID,19.3864,VALID,154,VALID,1.17791,
2007-04-04, 00:29:00,VALID,917.59,VALID,0,VALID,100,VALID,0,VALID,19.3996,VALID,136,VALID,1.30814,
2007-04-04, 00:30:00,VALID,917.566,VALID,0,VALID,100,VALID,0,VALID,19.3931,VALID,150,VALID,1.24479,
2007-04-04, 00:31:00,VALID,917.541,VALID,0,VALID,100,VALID,-0.0339617,VALID,19.3998,VALID,147,VALID,1.15253,
2007-04-04, 00:32:00,VALID,917.506,VALID,0,VALID,100,VALID,0,VALID,19.3998,VALID,148,VALID,1.64748,
2007-04-04, 00:33:00,VALID,917.487,VALID,0,VALID,100,VALID,0.0169808,VALID,19.3929,VALID,151,VALID,1.53051,
2007-04-04, 00:34:00,VALID,917.461,VALID,0,VALID,100,VALID,0.0169808,VALID,19.3961,VALID,145,VALID,1.49123,
2007-04-04, 00:35:00,VALID,917.454,VALID,0,VALID,100,VALID,-0.0169808,VALID,19.3959,VALID,141,VALID,1.04154,
2007-04-04, 00:36:00,VALID,917.43,VALID,0,VALID,100,VALID,0,VALID,19.3993,VALID,145,VALID,0.956055,
2007-04-04, 00:37:00,VALID,917.415,VALID,0,VALID,100,VALID,0.0169808,VALID,19.4026,VALID,151,VALID,1.13504,
2007-04-04, 00:38:00,VALID,917.402,VALID,0,VALID,100,VALID,0.0169808,VALID,19.3993,VALID,150,VALID,0.793527,
2007-04-04, 00:39:00,VALID,917.406,VALID,0,VALID,100,VALID,0,VALID,19.4058,VALID,128,VALID,1.01067,
2007-04-04, 00:40:00,VALID,917.404,VALID,0,VALID,100,VALID,0,VALID,19.4061,VALID,145,VALID,0.96875,
2007-04-04, 00:41:00,VALID,917.398,VALID,0,VALID,100,VALID,0.0169808,VALID,19.4093,VALID,137,VALID,1.24219,
2007-04-04, 00:42:00,VALID,917.382,VALID,0,VALID,100,VALID,0,VALID,19.4161,VALID,141,VALID,1.3026,
2007-04-04, 00:43:00,VALID,917.361,VALID,0,VALID,100,VALID,0,VALID,19.4126,VALID,151,VALID,1.39915,
2007-04-04, 00:44:00,VALID,917.344,VALID,0,VALID,100,VALID,-0.0339617,VALID,19.4161,VALID,143,VALID,1.0206,
2007-04-04, 00:45:00,VALID,917.328,VALID,0,VALID,100,VALID,0,VALID,19.4228,VALID,140,VALID,1.22578,
2007-04-04, 00:46:00,VALID,917.312,VALID,0,VALID,100,VALID,-0.0339617,VALID,19.4161,VALID,147,VALID,1.34497,
2007-04-04, 00:47:00,VALID,917.295,VALID,0,VALID,100,VALID,0,VALID,19.4258,VALID,143,VALID,1.38709,
2007-04-04, 00:48:00,VALID,917.264,VALID,0,VALID,100,VALID,0,VALID,19.4288,VALID,151,VALID,1.74148,
2007-04-04, 00:49:00,VALID,917.254,VALID,0,VALID,100,VALID,0.0169808,VALID,19.4388,VALID,142,VALID,1.43445,
2007-04-04, 00:50:00,VALID,917.241,VALID,0,VALID,100,VALID,0.0339617,VALID,19.4385,VALID,157,VALID,1.34175,
2007-04-04, 00:51:00,VALID,917.206,VALID,0,VALID,100,VALID,0,VALID,19.4355,VALID,157,VALID,1.85574,
2007-04-04, 00:52:00,VALID,917.205,VALID,0,VALID,100,VALID,0,VALID,19.438,VALID,163,VALID,1.49695,
2007-04-04, 00:53:00,VALID,917.183,VALID,0,VALID,100,VALID,0,VALID,19.4522,VALID,166,VALID,1.45024,
2007-04-04, 00:54:00,VALID,917.155,VALID,0,VALID,100,VALID,0,VALID,19.4448,VALID,162,VALID,1.48903,
2007-04-04, 00:55:00,VALID,917.131,VALID,0,VALID,100,VALID,-0.0169808,VALID,19.4483,VALID,172,VALID,0.960366,
2007-04-04, 00:56:00,VALID,917.124,VALID,0,VALID,100,VALID,0,VALID,19.4587,VALID,152,VALID,0.976744,
2007-04-04, 00:57:00,VALID,917.109,VALID,0,VALID,100,VALID,0,VALID,19.442,VALID,145,VALID,1.51618,
2007-04-04, 00:58:00,VALID,917.101,VALID,0,VALID,100,VALID,0,VALID,19.432,VALID,147,VALID,1.71736,
2007-04-04, 00:59:00,VALID,917.101,VALID,0,VALID,100,VALID,0,VALID,19.4288,VALID,146,VALID,1.83203,
2007-04-04, 01:00:00,VALID,917.095,VALID,0,VALID,100,VALID,0,VALID,19.4358,VALID,149,VALID,2.08516,
2007-04-04, 01:01:00,VALID,917.081,VALID,0,VALID,100,VALID,0,VALID,19.439,VALID,149,VALID,1.66788,
2007-04-04, 01:02:00,VALID,917.074,VALID,0,VALID,100,VALID,0,VALID,19.4358,VALID,144,VALID,1.63263,
2007-04-04, 01:03:00,VALID,917.071,VALID,0,VALID,100,VALID,0,VALID,19.4388,VALID,142,VALID,1.53664,
2007-04-04, 01:04:00,VALID,917.061,VALID,0,VALID,100,VALID,-0.0169808,VALID,19.4255,VALID,152,VALID,1.27305,
2007-04-04, 01:05:00,VALID,917.041,VALID,0,VALID,100,VALID,0,VALID,19.4293,VALID,156,VALID,1.77035,
2007-04-04, 01:06:00,VALID,917.042,VALID,0,VALID,100,VALID,-0.0339617,VALID,19.4288,VALID,150,VALID,1.90316,
2007-04-04, 01:07:00,VALID,917.028,VALID,0,VALID,100,VALID,-0.0169808,VALID,19.442,VALID,151,VALID,1.74702,
2007-04-04, 01:08:00,VALID,917.013,VALID,0,VALID,100,VALID,0,VALID,19.4388,VALID,146,VALID,1.66787,
2007-04-04, 01:09:00,VALID,917.003,VALID,0,VALID,100,VALID,-0.0169808,VALID,19.4455,VALID,146,VALID,1.66246,
2007-04-04, 01:10:00,VALID,916.994,VALID,0,VALID,100,VALID,0.0169808,VALID,19.4557,VALID,145,VALID,1.36496,
2007-04-04, 01:11:00,VALID,917.005,VALID,0,VALID,100,VALID,0,VALID,19.432,VALID,139,VALID,1.41842,
2007-04-04, 01:12:00,VALID,916.979,VALID,0,VALID,100,VALID,-0.0169808,VALID,19.4557,VALID,147,VALID,1.26469,
2007-04-04, 01:13:00,VALID,916.972,VALID,0,VALID,100,VALID,-0.0169808,VALID,19.4323,VALID,147,VALID,1.31214,
2007-04-04, 01:14:00,VALID,916.963,VALID,0,VALID,100,VALID,0,VALID,19.4355,VALID,144,VALID,1.47504,
2007-04-04, 01:15:00,VALID,916.952,VALID,0,VALID,100,VALID,0,VALID,19.4293,VALID,151,VALID,1.9255,
2007-04-04, 01:16:00,VALID,916.942,VALID,0,VALID,100,VALID,-0.0169808,VALID,19.4223,VALID,146,VALID,1.67411,
2007-04-04, 01:17:00,VALID,916.925,VALID,0,VALID,100,VALID,-0.0339617,VALID,19.4358,VALID,155,VALID,1.71183,
2007-04-04, 01:18:00,VALID,916.92,VALID,0,VALID,100,VALID,0,VALID,19.4363,VALID,149,VALID,1.68657,
2007-04-04, 01:19:00,VALID,916.92,VALID,0,VALID,100,VALID,0,VALID,19.4323,VALID,152,VALID,1.33693,
2007-04-04, 01:20:01,VALID,916.919,VALID,0,VALID,100,VALID,0,VALID,19.4225,VALID,152,VALID,1.56732,
2007-04-04, 01:21:00,VALID,916.901,VALID,0,VALID,100,VALID,-0.0339617,VALID,19.4355,VALID,153,VALID,1.95985,
2007-04-04, 01:22:00,VALID,916.899,VALID,0,VALID,100,VALID,-0.0339617,VALID,19.4325,VALID,153,VALID,1.70694,
2007-04-04, 01:23:01,VALID,916.896,VALID,0,VALID,100,VALID,-0.0169808,VALID,19.4425,VALID,153,VALID,1.51793,
2007-04-04, 01:24:00,VALID,916.891,VALID,0,VALID,100,VALID,-0.0169808,VALID,19.436,VALID,153,VALID,1.29501,
2007-04-04, 01:25:00,VALID,916.882,VALID,0,VALID,100,VALID,0,VALID,19.4395,VALID,147,VALID,1.44358,
2007-04-04, 01:26:00,VALID,916.874,VALID,0,VALID,100,VALID,-0.0339617,VALID,19.429,VALID,146,VALID,1.42587,
2007-04-04, 01:27:00,VALID,916.878,VALID,0,VALID,100,VALID,-0.0169808,VALID,19.4293,VALID,143,VALID,1.50223,
2007-04-04, 01:28:00,VALID,916.865,VALID,0,VALID,100,VALID,-0.0339617,VALID,19.429,VALID,154,VALID,1.71892,
2007-04-04, 01:29:00,VALID,916.855,VALID,0,VALID,100,VALID,0,VALID,19.432,VALID,151,VALID,1.18262,
2007-04-04, 01:30:00,VALID,916.835,VALID,0,VALID,100,VALID,0.0169808,VALID,19.4355,VALID,150,VALID,1.66897,
2007-04-04, 01:31:00,VALID,916.849,VALID,0,VALID,100,VALID,-0.0169808,VALID,19.4288,VALID,151,VALID,0.785764,
2007-04-04, 01:32:00,VALID,916.844,VALID,0,VALID,100,VALID,-0.0169808,VALID,19.4293,VALID,151,VALID,0.818677,
2007-04-04, 01:33:00,VALID,916.844,VALID,0,VALID,100,VALID,-0.0339617,VALID,19.4225,VALID,146,VALID,1.23914,
2007-04-04, 01:34:00,VALID,916.83,VALID,0,VALID,100,VALID,-0.0169808,VALID,19.4198,VALID,138,VALID,1.47228,
2007-04-04, 01:35:01,VALID,916.826,VALID,0,VALID,100,VALID,-0.0169808,VALID,19.426,VALID,138,VALID,1.17285,
2007-04-04, 01:36:00,VALID,916.827,VALID,0,VALID,100,VALID,-0.0509425,VALID,19.4198,VALID,138,VALID,1.40625,
2007-04-04, 01:37:01,VALID,916.825,VALID,0,VALID,100,VALID,-0.0339617,VALID,19.4265,VALID,146,VALID,1.38207,
2007-04-04, 01:38:01,VALID,916.819,VALID,0,VALID,100,VALID,-0.0339617,VALID,19.4168,VALID,153,VALID,0.975472,
2007-04-04, 01:39:00,VALID,916.809,VALID,0,VALID,100,VALID,-0.0509425,VALID,19.4165,VALID,135,VALID,1.379,
2007-04-04, 01:40:01,VALID,916.823,VALID,0,VALID,100,VALID,-0.0339617,VALID,19.4133,VALID,133,VALID,1.0436,
2007-04-04, 01:41:00,VALID,916.807,VALID,0,VALID,100,VALID,-0.0169808,VALID,19.4163,VALID,161,VALID,0.671289,
2007-04-04, 01:42:01,VALID,916.822,VALID,0,VALID,100,VALID,0.0169808,VALID,19.4158,VALID,167,VALID,0.525618,
2007-04-04, 01:43:00,VALID,916.817,VALID,0,VALID,100,VALID,0,VALID,19.4066,VALID,121,VALID,0.349159,
2007-04-04, 01:44:00,VALID,916.821,VALID,0,VALID,100,VALID,-0.0169808,VALID,19.4028,VALID,140,VALID,0.214935,
2007-04-04, 01:45:00,VALID,916.821,VALID,0,VALID,100,VALID,-0.0339617,VALID,19.4228,VALID,144,VALID,0,
2007-04-04, 01:46:00,VALID,916.829,VALID,0,VALID,100,VALID,0,VALID,19.4061,VALID,143,VALID,0,
2007-04-04, 01:47:01,VALID,916.827,VALID,0,VALID,100,VALID,0,VALID,19.3961,VALID,94,VALID,0.272249,
2007-04-04, 01:48:00,VALID,916.807,VALID,0,VALID,100,VALID,0,VALID,19.3831,VALID,86,VALID,0.141211,
2007-04-04, 01:49:01,VALID,916.812,VALID,0,VALID,100,VALID,0,VALID,19.3669,VALID,86,VALID,0.331473,
2007-04-04, 01:50:00,VALID,916.792,VALID,0,VALID,100,VALID,-0.0169808,VALID,19.3674,VALID,82,VALID,0.427083,
2007-04-04, 01:51:00,VALID,916.786,VALID,0,VALID,100,VALID,0.0169808,VALID,19.3604,VALID,64,VALID,0.615141,
2007-04-04, 01:52:00,VALID,916.773,VALID,0,VALID,100,VALID,0,VALID,19.338,VALID,53,VALID,0.682776,
2007-04-04, 01:53:00,VALID,916.772,VALID,0,VALID,100,VALID,0,VALID,19.3053,VALID,53,VALID,0.592297,
2007-04-04, 01:54:00,VALID,916.759,VALID,0,VALID,100,VALID,0,VALID,19.286,VALID,53,VALID,0.46875,
2007-04-04, 01:55:00,VALID,916.761,VALID,0,VALID,100,VALID,-0.0169808,VALID,19.2763,VALID,53,VALID,0.473845,
2007-04-04, 01:56:01,VALID,916.757,VALID,0,VALID,100,VALID,0,VALID,19.2601,VALID,54,VALID,0.816746,
2007-04-04, 01:57:00,VALID,916.741,VALID,0,VALID,100,VALID,0,VALID,19.2474,VALID,56,VALID,0.926758,
2007-04-04, 01:58:00,VALID,916.751,VALID,0,VALID,100,VALID,-0.0169808,VALID,19.2474,VALID,56,VALID,0.946801,
2007-04-04, 01:59:00,VALID,916.739,VALID,0,VALID,100,VALID,0,VALID,19.2411,VALID,60,VALID,0.965892,
2007-04-04, 02:00:00,VALID,916.707,VALID,0,VALID,100,VALID,-0.0339617,VALID,19.2147,VALID,68,VALID,0.992357,
2007-04-04, 02:01:01,VALID,916.708,VALID,0,VALID,100,VALID,0,VALID,19.1982,VALID,71,VALID,0.973828,
2007-04-04, 02:02:00,VALID,916.684,VALID,0,VALID,100,VALID,-0.0339617,VALID,19.1693,VALID,73,VALID,0.916606,
2007-04-04, 02:03:00,VALID,916.676,VALID,0,VALID,100,VALID,0,VALID,19.1598,VALID,73,VALID,1.00308,
2007-04-04, 02:04:00,VALID,916.666,VALID,0,VALID,100,VALID,-0.0169808,VALID,19.1498,VALID,73,VALID,0.781428,
2007-04-04, 02:05:01,VALID,916.656,VALID,0,VALID,100,VALID,-0.0339617,VALID,19.1403,VALID,72,VALID,0.703852,
2007-04-04, 02:06:01,VALID,916.651,VALID,0,VALID,100,VALID,0,VALID,19.1403,VALID,65,VALID,0.837126,
2007-04-04, 02:07:00,VALID,916.664,VALID,0,VALID,100,VALID,0,VALID,19.1368,VALID,64,VALID,0.673971,
2007-04-04, 02:08:01,VALID,916.658,VALID,0,VALID,100,VALID,-0.0169808,VALID,19.1403,VALID,65,VALID,0.508371,
2007-04-04, 02:09:01,VALID,916.675,VALID,0,VALID,100,VALID,-0.0339617,VALID,19.1271,VALID,65,VALID,0.208757,
2007-04-04, 02:10:00,VALID,916.678,VALID,0,VALID,100,VALID,-0.0509425,VALID,19.1246,VALID,80,VALID,0.278516,
2007-04-04, 02:11:01,VALID,916.681,VALID,0,VALID,100,VALID,-0.0169808,VALID,19.1081,VALID,96,VALID,0.384411,
2007-04-04, 02:12:01,VALID,916.688,VALID,0,VALID,100,VALID,-0.0339617,VALID,19.0914,VALID,107,VALID,0.750499,
2007-04-04, 02:13:01,VALID,916.695,VALID,0,VALID,100,VALID,-0.0339617,VALID,19.0822,VALID,122,VALID,0.94122,
2007-04-04, 02:14:01,VALID,916.684,VALID,0,VALID,100,VALID,0,VALID,19.072,VALID,128,VALID,0.879192,
2007-04-04, 02:15:00,VALID,916.668,VALID,0,VALID,100,VALID,-0.0339617,VALID,19.0754,VALID,138,VALID,0.702959,
2007-04-04, 02:16:01,VALID,916.657,VALID,0,VALID,100,VALID,-0.0339617,VALID,19.0657,VALID,138,VALID,0.889881,
2007-04-04, 02:17:00,VALID,916.639,VALID,0,VALID,100,VALID,0,VALID,19.0717,VALID,151,VALID,1.06045,
2007-04-04, 02:18:01,VALID,916.641,VALID,0,VALID,100,VALID,-0.0169808,VALID,19.0754,VALID,143,VALID,1.11301,
2007-04-04, 02:19:01,VALID,916.638,VALID,0,VALID,100,VALID,-0.0169808,VALID,19.0784,VALID,146,VALID,0.933203,
2007-04-04, 02:20:01,VALID,916.617,VALID,0,VALID,100,VALID,-0.0849042,VALID,19.0887,VALID,136,VALID,0.998438,
2007-04-04, 02:21:01,VALID,916.606,VALID,0,VALID,100,VALID,-0.0339617,VALID,19.0852,VALID,125,VALID,1.06632,
2007-04-04, 02:22:01,VALID,916.582,VALID,0,VALID,100,VALID,-0.0339617,VALID,19.0754,VALID,98,VALID,1.10901,
2007-04-04, 02:23:01,VALID,916.558,VALID,0,VALID,100,VALID,-0.0169808,VALID,19.0717,VALID,88,VALID,1.01776,
2007-04-04, 02:24:00,VALID,916.544,VALID,0,VALID,100,VALID,0,VALID,19.059,VALID,73,VALID,0.927641,
2007-04-04, 02:25:00,VALID,916.53,VALID,0,VALID,100,VALID,-0.0169808,VALID,19.0497,VALID,69,VALID,0.887695,
2007-04-04, 02:26:00,VALID,916.507,VALID,0,VALID,100,VALID,-0.0169808,VALID,19.0398,VALID,50,VALID,1.02813,
2007-04-04, 02:27:00,VALID,916.499,VALID,0,VALID,100,VALID,-0.0169808,VALID,19.0497,VALID,45,VALID,0.86814,
2007-04-04, 02:28:00,VALID,916.493,VALID,0,VALID,100,VALID,0,VALID,19.0462,VALID,51,VALID,0.911204,
2007-04-04, 02:29:00,VALID,916.501,VALID,0,VALID,100,VALID,-0.0339617,VALID,19.0365,VALID,82,VALID,0.726563,
2007-04-04, 02:30:00,VALID,916.489,VALID,0,VALID,100,VALID,0,VALID,19.0166,VALID,84,VALID,0.575817,
2007-04-04, 02:31:00,VALID,916.482,VALID,0,VALID,100,VALID,-0.0339617,VALID,19.0073,VALID,84,VALID,0.309126,
2007-04-04, 02:32:00,VALID,916.465,VALID,0,VALID,100,VALID,-0.0339617,VALID,19.0235,VALID,89,VALID,0.832465,
2007-04-04, 02:33:00,VALID,916.458,VALID,0,VALID,100,VALID,-0.0339617,VALID,19.0238,VALID,71,VALID,0.763021,
2007-04-04, 02:34:00,VALID,916.441,VALID,0,VALID,100,VALID,-0.0169808,VALID,19.0268,VALID,72,VALID,0.886806,
2007-04-04, 02:35:00,VALID,916.425,VALID,0,VALID,100,VALID,-0.0509425,VALID,19.0338,VALID,84,VALID,0.986662,
2007-04-04, 02:36:00,VALID,916.423,VALID,0,VALID,100,VALID,-0.0339617,VALID,19.0233,VALID,93,VALID,1.01493,
2007-04-04, 02:37:00,VALID,916.403,VALID,0,VALID,100,VALID,-0.0339617,VALID,19.0231,VALID,110,VALID,1.05227,
2007-04-04, 02:38:00,VALID,916.397,VALID,0,VALID,100,VALID,0,VALID,19.0265,VALID,119,VALID,1.16481,
2007-04-04, 02:39:00,VALID,916.388,VALID,0,VALID,100,VALID,-0.0509425,VALID,19.0365,VALID,129,VALID,1.19066,
2007-04-04, 02:40:00,VALID,916.372,VALID,0,VALID,100,VALID,-0.0169808,VALID,19.0231,VALID,131,VALID,1.14631,
2007-04-04, 02:41:00,VALID,916.364,VALID,0,VALID,100,VALID,0,VALID,19.0231,VALID,127,VALID,0.917773,
2007-04-04, 02:42:00,VALID,916.357,VALID,0,VALID,100,VALID,-0.0339617,VALID,19.0231,VALID,145,VALID,1.10897,
2007-04-04, 02:43:00,VALID,916.338,VALID,0,VALID,100,VALID,-0.0339617,VALID,19.024,VALID,144,VALID,1.09913,
2007-04-04, 02:44:00,VALID,916.341,VALID,0,VALID,100,VALID,-0.0169808,VALID,19.0263,VALID,136,VALID,1.31323,
2007-04-04, 02:45:00,VALID,916.334,VALID,0,VALID,100,VALID,-0.0169808,VALID,19.0166,VALID,140,VALID,1.129,
2007-04-04, 02:46:00,VALID,916.329,VALID,0,VALID,100,VALID,0,VALID,19.0263,VALID,140,VALID,1.14918,
2007-04-04, 02:47:00,VALID,916.328,VALID,0,VALID,100,VALID,0,VALID,19.0363,VALID,138,VALID,1.17797,
2007-04-04, 02:48:00,VALID,916.344,VALID,0,VALID,100,VALID,-0.0339617,VALID,19.0425,VALID,130,VALID,1.41122,
2007-04-04, 02:49:00,VALID,916.351,VALID,0,VALID,100,VALID,0,VALID,19.046,VALID,118,VALID,1.19199,
2007-04-04, 02:50:00,VALID,916.358,VALID,0,VALID,100,VALID,-0.0169808,VALID,19.0587,VALID,123,VALID,1.20035,
2007-04-04, 02:51:00,VALID,916.368,VALID,0,VALID,100,VALID,0,VALID,19.0652,VALID,116,VALID,1.09286,
2007-04-04, 02:52:00,VALID,916.369,VALID,0,VALID,100,VALID,0,VALID,19.062,VALID,100,VALID,0.695884,
2007-04-04, 02:53:00,VALID,916.359,VALID,0,VALID,100,VALID,0,VALID,19.0617,VALID,92,VALID,0.677734,
2007-04-04, 02:54:00,VALID,916.354,VALID,0,VALID,100,VALID,-0.0169808,VALID,19.0555,VALID,70,VALID,0.637835,
2007-04-04, 02:55:00,VALID,916.339,VALID,0,VALID,100,VALID,0,VALID,19.0328,VALID,66,VALID,0.710088,
2007-04-04, 02:56:00,VALID,916.318,VALID,0,VALID,100,VALID,0,VALID,19.0198,VALID,75,VALID,0.460938,
2007-04-04, 02:57:00,VALID,916.308,VALID,0,VALID,100,VALID,0,VALID,19.0133,VALID,75,VALID,0.585756,
2007-04-04, 02:58:00,VALID,916.289,VALID,0,VALID,100,VALID,-0.0339617,VALID,18.9939,VALID,75,VALID,0.397347,
2007-04-04, 02:59:00,VALID,916.282,VALID,0,VALID,100,VALID,-0.0339617,VALID,19.0006,VALID,94,VALID,0.608487,
2007-04-04, 03:00:00,VALID,916.254,VALID,0,VALID,100,VALID,0,VALID,19.0101,VALID,132,VALID,0.826823,
2007-04-04, 03:01:00,VALID,916.247,VALID,0,VALID,100,VALID,0.0169808,VALID,19.036,VALID,110,VALID,0.699314,
2007-04-04, 03:02:00,VALID,916.221,VALID,0,VALID,100,VALID,0,VALID,19.0293,VALID,89,VALID,0.480655,
2007-04-04, 03:03:00,VALID,916.206,VALID,0,VALID,100,VALID,-0.0169808,VALID,19.0325,VALID,93,VALID,0.660714,
2007-04-04, 03:04:00,VALID,916.195,VALID,0,VALID,100,VALID,-0.0169808,VALID,19.036,VALID,110,VALID,0.724848,
2007-04-04, 03:05:00,VALID,916.183,VALID,0,VALID,100,VALID,0,VALID,19.0261,VALID,123,VALID,1.03582,
2007-04-04, 03:06:00,VALID,916.181,VALID,0,VALID,100,VALID,0.0339617,VALID,19.0328,VALID,130,VALID,1.36387,
2007-04-04, 03:07:00,VALID,916.178,VALID,0,VALID,100,VALID,0.0169808,VALID,19.039,VALID,145,VALID,0.993278,
2007-04-04, 03:08:00,VALID,916.162,VALID,0,VALID,100,VALID,-0.0169808,VALID,19.0485,VALID,145,VALID,1.36192,
2007-04-04, 03:09:00,VALID,916.163,VALID,0,VALID,100,VALID,0.0169808,VALID,19.0455,VALID,154,VALID,1.27102,
2007-04-04, 03:10:00,VALID,916.158,VALID,0,VALID,100,VALID,-0.0169808,VALID,19.0555,VALID,138,VALID,1.15874,
2007-04-04, 03:11:00,VALID,916.139,VALID,0,VALID,100,VALID,-0.0169808,VALID,19.049,VALID,148,VALID,1.43266,
2007-04-04, 03:12:00,VALID,916.143,VALID,0,VALID,100,VALID,-0.0169808,VALID,19.0325,VALID,138,VALID,1.21841,
2007-04-04, 03:13:00,VALID,916.139,VALID,0,VALID,100,VALID,-0.0169808,VALID,19.036,VALID,140,VALID,1.20742,
2007-04-04, 03:14:00,VALID,916.126,VALID,0,VALID,100,VALID,0,VALID,19.0261,VALID,134,VALID,1.15458,
2007-04-04, 03:15:00,VALID,916.119,VALID,0,VALID,100,VALID,0,VALID,19.0328,VALID,130,VALID,1.11364,
2007-04-04, 03:16:00,VALID,916.117,VALID,0,VALID,100,VALID,0.0169808,VALID,19.0261,VALID,129,VALID,0.951923,
2007-04-04, 03:17:00,VALID,916.111,VALID,0,VALID,100,VALID,0,VALID,19.03,VALID,135,VALID,0.622713,
2007-04-04, 03:18:00,VALID,916.101,VALID,0,VALID,100,VALID,0,VALID,19.0198,VALID,138,VALID,0.669398,
2007-04-04, 03:19:00,VALID,916.096,VALID,0,VALID,100,VALID,0,VALID,19.0198,VALID,122,VALID,0.570499,
2007-04-04, 03:20:00,VALID,916.079,VALID,0,VALID,100,VALID,0.0169808,VALID,19.0166,VALID,115,VALID,0.890625,
2007-04-04, 03:21:00,VALID,916.066,VALID,0,VALID,100,VALID,0,VALID,19.0036,VALID,95,VALID,0.619965,
2007-04-04, 03:22:00,VALID,916.068,VALID,0,VALID,100,VALID,0.0509425,VALID,18.9871,VALID,73,VALID,0.522727,
2007-04-04, 03:23:00,VALID,916.059,VALID,0,VALID,100,VALID,0,VALID,18.9774,VALID,70,VALID,0.628634,
2007-04-04, 03:24:00,VALID,916.065,VALID,0,VALID,100,VALID,0,VALID,18.9712,VALID,82,VALID,0.63548,
2007-04-04, 03:25:00,VALID,916.063,VALID,0,VALID,100,VALID,0,VALID,18.9515,VALID,85,VALID,0.787246,
2007-04-04, 03:26:00,VALID,916.072,VALID,0,VALID,100,VALID,0,VALID,18.9549,VALID,98,VALID,0.648793,
2007-04-04, 03:27:00,VALID,916.075,VALID,0,VALID,100,VALID,0,VALID,18.9619,VALID,101,VALID,0.778963,
2007-04-04, 03:28:00,VALID,916.082,VALID,0,VALID,100,VALID,-0.0169808,VALID,18.9482,VALID,109,VALID,0.750558,
2007-04-04, 03:29:00,VALID,916.087,VALID,0,VALID,100,VALID,-0.0339617,VALID,18.9452,VALID,116,VALID,0.784766,
2007-04-04, 03:30:00,VALID,916.072,VALID,0,VALID,100,VALID,0,VALID,18.9422,VALID,123,VALID,0.809642,
2007-04-04, 03:31:00,VALID,916.075,VALID,0,VALID,100,VALID,-0.0169808,VALID,18.9424,VALID,136,VALID,0.664648,
2007-04-04, 03:32:00,VALID,916.077,VALID,0,VALID,100,VALID,0,VALID,18.9387,VALID,155,VALID,0.549679,
2007-04-04, 03:33:00,VALID,916.079,VALID,0,VALID,100,VALID,0.0169808,VALID,18.9352,VALID,144,VALID,0.411395,
2007-04-04, 03:34:00,VALID,916.089,VALID,0,VALID,100,VALID,-0.0169808,VALID,18.9322,VALID,153,VALID,0.580915,
2007-04-04, 03:35:00,VALID,916.073,VALID,0,VALID,100,VALID,-0.0169808,VALID,18.939,VALID,132,VALID,0.504523,
2007-04-04, 03:36:00,VALID,916.081,VALID,0,VALID,100,VALID,0.0169808,VALID,18.9357,VALID,127,VALID,0.921875,
2007-04-04, 03:37:00,VALID,916.087,VALID,0,VALID,100,VALID,-0.0169808,VALID,18.9325,VALID,130,VALID,0.697976,
2007-04-04, 03:38:00,VALID,916.091,VALID,0,VALID,100,VALID,0,VALID,18.9322,VALID,131,VALID,0.903343,
2007-04-04, 03:39:00,VALID,916.1,VALID,0,VALID,100,VALID,0.0509425,VALID,18.9285,VALID,136,VALID,0.458629,
2007-04-04, 03:40:00,VALID,916.106,VALID,0,VALID,100,VALID,0,VALID,18.9253,VALID,119,VALID,0.663517,
2007-04-04, 03:41:00,VALID,916.104,VALID,0,VALID,100,VALID,0,VALID,18.9223,VALID,70,VALID,0.589666,
2007-04-04, 03:42:00,VALID,916.121,VALID,0,VALID,100,VALID,0,VALID,18.922,VALID,36,VALID,0.547053,
2007-04-04, 03:43:00,VALID,916.118,VALID,0,VALID,100,VALID,0,VALID,18.9058,VALID,41,VALID,0.807546,